Regional Weather Roundup
Issued by NWS

Home | Current Version | Previous Version | Text Only | Print | Product List | Glossary Off
Versions: 1 2 3 4 5 6 7 8 9 10 11 12 13 14 15 16 17 18 19 20 21 22 23 24 25 26 27 28 29 30 31 32 33 34 35 36 37 38 39 40 41 42 43 44 45 46 47 48 49 50

000
ASUS43 KMPX 170101
RWRMN
WEATHER ROUNDUP FOR MINNESOTA
NATIONAL WEATHER SERVICE TWIN CITIES/CHANHASSEN MN
800 PM CDT MON OCT 16 2017


NOTE: "FAIR" INDICATES FEW OR NO CLOUDS BELOW 12,000 FEET WITH NO
SIGNIFICANT WEATHER AND/OR OBSTRUCTIONS TO VISIBILITY. N/A MEANS
CURRENT SKY AND/OR WEATHER CONDITIONS ARE NOT AVAILABLE.

MNZ060>063-068>070-170200-
   Twin Cities Metro

CITY           SKY/WX    TMP DP  RH WIND       PRES   REMARKS
TWIN CITIES    PTCLDY    61  38  42 S9        29.98F
ST PAUL        CLEAR     55  40  56 SE10      29.99F
CRYSTAL        CLEAR     56  36  47 S5        29.97F
BLAINE         PTCLDY    54  39  58 S6        29.97F
LAKEVILLE      CLEAR     54  37  54 S6        30.00F
EDEN PRAIRIE   CLEAR     56  38  50 S7        29.97F
SOUTH ST PAUL  CLEAR     58  37  43 S8        29.99S
LAKE ELMO      FAIR      54  39  58 S7        30.00F
$$
MNZ001>005-007-008-013>017-022>024-027-028-170200-
   Northwest Minnesota

CITY           SKY/WX    TMP DP  RH WIND       PRES   REMARKS
BEMIDJI        CLEAR     55  38  54 SW6       29.86R
HALLOCK        CLOUDY    52  34  50 W8        29.82S
ROSEAU           N/A     59  39  47 SW7       29.81R
WARROAD        CLOUDY    55  41  58 SW8       29.80S
CROOKSTON      CLOUDY    52  34  50 W9        29.87R
FOSSTON        CLOUDY    52  34  50 W3        29.88R
DETROIT LAKES  CLEAR     59  37  44 SW5       29.91R
MOORHEAD       CLEAR     55  41  58 SW6       29.90R
PARK RAPIDS    CLEAR     50  39  66 S10       29.88S
MAHNOMEN       FAIR      54  39  57 SW7       29.88R
$$
MNZ006-009>011-018-025>026-170200-
   North Central Minnesota

CITY           SKY/WX    TMP DP  RH WIND       PRES   REMARKS
BAUDETTE       CLOUDY    57  37  47 SW7       29.80S
FLAG ISLAND    CLOUDY    55  37  50 SW9       29.75S
INTL FALLS     CLEAR     45  35  68 SW6       29.80R
WASKISH        CLOUDY    54  45  71 SW8       29.83S
BIG FORK       CLOUDY    55  37  50 SW9       29.85R
LONGVILLE      CLEAR     54  37  54 CALM      29.88S
GRAND RAPIDS   CLEAR     55  37  50 S9        29.89F
CRANE LAKE     CLEAR     52  34  50 S6        29.84S
ORR            CLOUDY    52  32  46 S6        29.82S
COOK           CLEAR     54  36  50 S6        29.85F
WALKER         FAIR      55  39  54 S7        29.86F
$$
MNZ012-019>021-037-170200-
   Northeast Minnesota

CITY           SKY/WX    TMP DP  RH WIND       PRES   REMARKS
DULUTH         CLEAR     53  36  52 SW13      29.90F
ELY            CLEAR     52  32  46 S8        29.85F
HIBBING        CLEAR     52  34  50 S5        29.87F
EVELETH        CLEAR     52  27  37 SW8       29.89S
DULUTH HARBOR  CLEAR     57  39  51 S12       29.91F
TWO HARBORS    CLEAR     54  39  58 SW7       29.89S
GRAND MARAIS     N/A     52  45  77 VRB5G21   29.89F
G MARAIS ARPRT CLEAR     46  37  71 S7        29.89F
$$
MNZ029>031-032-039>041-046>048-054>057-064-170200-
   West Central Minnesota

CITY           SKY/WX    TMP DP  RH WIND       PRES   REMARKS
FERGUS FALLS   CLEAR     54  41  62 SW6       29.92S
WHEATON        CLEAR     55  39  54 SW3       29.95R
MORRIS         CLEAR     54  43  66 SW3       29.93S
ALEXANDRIA     CLEAR     56  39  53 SW9       29.94S
ELBOW LAKE     FAIR      51  40  65 W7        29.93S
WADENA         CLEAR     52  39  62 SW3       29.91R
GLENWOOD       CLEAR     54  39  58 SW9       29.95S
APPLETON       CLEAR     57  39  51 SW5       29.94S
BENSON         CLEAR     55  39  54 SW6       29.96S
ORTONVILLE     CLEAR     57  39  51 NW3       29.93F
MADISON        CLEAR     61  41  48 SW7       29.95S
WILLMAR        FAIR      57  39  51 CALM      29.96F
$$
MNZ033>034-036-042>043-049>051-058-059-170200-
   Central Minnesota

CITY           SKY/WX    TMP DP  RH WIND       PRES   REMARKS
ST CLOUD       CLEAR     51  40  65 S8        29.94F
SAUK CENTRE    FAIR      52  40  61 SW6       29.93F
PAYNESVILLE    CLEAR     58  39  49 S6        29.95S
AITKIN         CLEAR     54  37  54 S8        29.89F
PINE RIVER     CLEAR     46  37  71 CALM      29.93S
BRAINERD       CLEAR     55  37  50 S7        29.91F
STAPLES        CLEAR     54  37  54 CALM      29.91R
LONG PRAIRIE   FAIR      52  37  58 S5        29.93S
LITTLE FALLS   CLEAR     52  32  46 SE3       29.92F
LITCHFIELD     CLEAR     54  41  62 CALM      29.96F
BUFFALO        CLEAR     57  36  45 S5        29.97F
MAPLE LAKE     CLEAR     58  40  51 S6        29.97F
HUTCHINSON     CLOUDY    55  40  57 S6        29.98F
$$
MNZ037-044-045-052-053-170200-
   East Central Minnesota

CITY           SKY/WX    TMP DP  RH WIND       PRES   REMARKS
PRINCETON      CLEAR     54  39  58 S6        29.95F
MORA           CLEAR     54  37  54 S5        29.96F
CAMBRIDGE      CLEAR     57  41  54 S5        29.96S
RUSH CITY      MOCLDY    52  37  58 S6        29.96S
MOOSE LAKE     CLEAR     50  36  57 S6        29.91F
HINCKLEY       FAIR      52  37  58 S5        29.95F
CLOQUET        CLEAR     54  34  47 S7        29.91F
MCGREGOR       CLEAR     52  37  58 S6        29.91S
$$
MNZ071>073-080-081-089-090-097-098-170200-
   Southwest Minnesota

CITY           SKY/WX    TMP DP  RH WIND       PRES   REMARKS
MONTEVIDEO     CLOUDY    55  34  44 SW6       29.95S
GRANITE FALLS  CLOUDY    54  41  61 S6        29.97S
CANBY          PTCLDY    59  40  50 SW6       29.97S
MARSHALL       CLOUDY    58  39  49 SW8       29.96F
REDWOOD FALLS  CLOUDY    58  38  47 S10       29.97S
OLIVIA         CLEAR     55  39  54 S6        29.96S
PIPESTONE      CLOUDY    55  39  54 SW5       30.00S
WORTHINGTON    CLOUDY    58  38  47 S7        30.03S
JACKSON        CLOUDY    55  37  50 S8        30.03F
TRACY          CLOUDY    63  40  43 SW12G17   29.97F
SLAYTON        CLOUDY    59  38  45 S12       30.01S
$$
MNZ065>067-074>077-082>085-091>093-170200-
   South Central Minnesota

CITY           SKY/WX    TMP DP  RH WIND       PRES   REMARKS
MANKATO        PTCLDY    59  37  44 S8        30.01F
NEW ULM          N/A     59  37  44 S9        29.99F
ST JAMES       CLOUDY    57  39  51 S6        30.02F
FAIRMONT       CLOUDY    56  40  55 S10       30.04S
GLENCOE        CLEAR     58  38  46 S7        29.97F
FARIBAULT      CLEAR     55  37  50 S6        30.03S
OWATONNA       CLOUDY    57  37  47 S9        30.03F
WASECA         CLOUDY    55  37  50 S8        30.05S
ALBERT LEA     CLEAR     63  37  39 S8        30.06S
$$
MNZ078>079-086>088-094>096-170200-
   Southeast Minnesota

CITY           SKY/WX    TMP DP  RH WIND       PRES   REMARKS
ROCHESTER      CLEAR     52  39  61 S12       30.07S
RED WING       CLEAR     57  34  41 CALM      30.02S
STANTON        CLEAR     55  38  51 S7        30.00F
DODGE CENTER   CLEAR     55  36  47 S14       30.05S
WINONA         CLEAR     52  41  66 CALM      30.06F
AUSTIN         CLEAR     54  37  54 S8        30.07S
PRESTON        CLEAR     53  36  52 S9        30.09S
$$
ABBREVIATIONS USED IN REMARKS
   TC - TEMPERATURES IN CELSIUS
  WCI - WIND CHILL INDEX
   HX - HEAT INDEX
  VSB - VISIBILITY
$$




USA.gov is the U.S. government's official web portal to all federal, state and local government web resources and services.